Погода в Нефтчале

Погода в Нефтчале : погода сейчас, прогноз погоды и архив. Всё, что Вы хотите узнать о погоде в Нефтчале!

Поиск расширенной информации на нашем сайте:

Полезная информация: Marina APM 200 25 недорого: насосная станция для частного дома. Станция бытового водоснабжения.

Другие новости

Новости СМИ2

Главная страница сайта

Новости сайта

02.10.2013

Напоминаем, что на нашем новом сайте вы можете получить высокодетализированные прогнозы погоды по пунктам России, СНГ и мира (включающие важные для авиации метеовеличины, такие как направление и скорость ветра, видимость, явления погоды, количество и форма облачности, нижняя и верхняя граница облачности), а также ознакомиться с разнообразными материалами по авиационной метеорологии и подборкой полезных ссылок на эту тему.

Сайт Метеоцентр.Азия посвящён разработке технологий оптимизации авиаметеорологического обслуживания, включая проектирование и перспективное создание нескольких автоматизированных авиаметеорологических систем:
- система выпуска высокодетальных прогностических карт явлений погоды для нижнего воздушного пространства по России и ближнему зарубежью;
- система верификации прогнозов TAF (выпускаемых синоптиками официальных АМСГ РФ и ближнего зарубежья) и AUTOTAF (выпускаемых сайтом Метеоцентр.Азия) - выявление ошибок, онлайн-сопоставление с фактической погодой METAR, автоматическое внесение коррективов в прогнозы при резком отклонении фактической погоды от прогноза, подсчёт оправдываемости прогнозов по элементам и в целом;
- система обработки, анализа и отображения авиаметеорологической информации для применения провайдерами метеорологической информации.

Рекомендуем: Abc автоматика ворота сервис.

Погода в Нефтчале - сегодня

Время (UTC), дата Ветер
(°,м/с) 
Видим.   Явления Облачность Т
(°С)
Тd
(°С)
f(%) Тe
(°С)
Pmin
(гПа)
dP
(гПа)
Po
(мм)
O2
(г/м3)
Тmin Tmax R s Состояние
почвы
12 16.02.17 050 (СВ) 16-20{20}  20000 м    10/0 средняя 
[Ac As]
+3.4 +0.2 80 -2  1019.6  0.5  767  305           
15 16.02.17 050 (СВ) 16-20{20}  10 км    10/10 600 м 
[Frnb|Ns]
+2.3 -1.5 76 -3  1021.3  1.7  768  307           
18 16.02.17 050 (СВ) 16-20{20}  10 км    10/10 600 м 
[Frnb|Ns]
+1.7 -2.1 76 -4  1023.2  1.9  770  308    +5.5       
21 16.02.17 050 (СВ) 16-20{20}  10 км  слаб. снег  10/10 600 м 
[Frnb]
+1.1 -1.4 83 -5  1023.5  0.3  770  309           
00 17.02.17 050 (СВ) 16-20{20}  10 км  слаб. снег  10/10 600 м 
[Frnb]
+0.3 -0.8 92 -6  1024.2  0.7  770  310           
03 17.02.17 050 (СВ) 16  10 км  слаб. снег  10/10 600 м 
[Frnb]
-0.9 -1.3 97 -7  1025.6  1.4  771  312         
06 17.02.17 320 (СЗ) 10 км  слаб. снег  10/10 600 м 
[Frnb]
-0.4 -1.6 92 -4  1027.5  1.9  773  312         
09 17.02.17 320 (СЗ) 20000 м  {снег}  10/8 600 м средняя 
[Frnb|As op]
+1.9 -1.4 79 -2  1028.1  0.6  773  310           
12 17.02.17 050 (СВ) 20000 м  {снег}  8/8 600 м 
[Cu med, cong]
+2.1 -2.2 73 -1  1027.9  -0.2  773  309           
15 17.02.17 050 (СВ) 10 км    8/8 600 м 
[Cu med, cong]
+1.3 -2.5 76 +1  1029.6  1.7  774  311      0.0     
18 17.02.17 050 (СВ) 10 км    ясно 
+0.4 -2.5 81 1030.8  -1.2  775  312    +3.2       
21 17.02.17 050 (СВ) 10 км    ясно 
-0.6 -3 84 -1  1031.7  0.9  776  314           
00 18.02.17 тихо ()   10 км    ясно 
-2.8 -4.1 91 -3  1031.9  0.2  776  317           
03 18.02.17 тихо ()   10 км    ясно 
-3 -4.6 89 -3  1033  1.1  777  317           
06 18.02.17 тихо ()   20000 м    ясно 
+0.1 -3.9 74 1034.1  1.1  778  314           
09 18.02.17 270 (З) 20000 м    ясно 
+3.8 -4.2 56 +3  1033.4  -0.7  777  309           
12 18.02.17 270 (З) 20000 м    ясно 
+6.8 -4.4 45 +7  1031.9  -1.5  776  306           
15 18.02.17 140 (ЮВ) 10 км    ясно 
+3.7 -3.6 59 +5  1032  0.1  776  309           
18 18.02.17 140 (ЮВ) 10 км    ясно 
+3 -1.2 74 +4  1031.7  -0.3  776  309    +7.3       
21 18.02.17 тихо ()   10 км    ясно 
-0.5 -1.7 92 -1  1030.9  -0.8  775  313           
00 19.02.17 тихо ()   10 км    ясно 
-0.1 -2.8 82 -0  1030.2  -0.7  775  313           
03 19.02.17 тихо ()   10 км    ясно 
-1.7 -3.6 87 -2  1030.9  0.7  775  315           
06 19.02.17 270 (З) 20000 м    ясно 
+2.3 -5.5 56 +3  1031.9  776  311           
09 19.02.17 270 (З) 20000 м    ясно 
+7.1 -6.4 38 +6  1031.3  -0.6  776  305           
12 19.02.17 тихо ()   20000 м    ясно 
+10.3 -3.7 37 +10  1030.6  -0.8  775  301           
Время (UTC), дата Ветер
(°,м/с) 
Видим.   Явления Облачность Т
(°С)
Тd
(°С)
f(%) Тe
(°С)
Pmin
(гПа)
dP
(гПа)
Po
(мм)
O2
(г/м3)
Тmin Tmax R s Состояние
почвы

Для получения пояснительной информации подведите курсор к названию столбца.

ПОГОДА в Нефтчале - архив

Всё, что Вы хотите узнать о погоде в Нефтчале - удобно и подробно!

Выберите нужную дату (начиная с 1 января 2015* года) и нажмите кнопку "Найти".
Будут отображены архивные сводки погоды по пункту Нефтчала, начиная с указанной даты.


Отображать данные в формате CSV (для использования в таблицах Excel)


Внимание! Наш архив погоды предназначен исключительно для личного некоммерческого использования в познавательных целях. Если Вам необходимы официальные справки о состоянии погоды (для производственных, юридических, коммерческих и т.п. целей), обращайтесь в органы Росгидромета.

*Примечание: данная дата относится к архиву по метеостанциям СССР (Россия, СНГ, Балтия).
Архив по метеостанциям Зарубежной Европы и Азии (кроме Китая) хранится 10 дней, по другим регионам земного шара (Китай, Африка, Америка, Австралия, Океания) - 1 день.

Нефтчала - район местоположения метеостанции


Название, широта, долгота, высота метеостанции:
Нефтчала 39.4°ш. 49.2°д. -24 м над ур. моря [Азербайджан]

Дополнительная информация

В oтличие oт бoльшинства пoгoдных сайтoв мы публикуем пoдрoбную метеoинфoрмацию в детальнoм прoфессиoнальнoм фoрмате.

Характеристики температуры и влажнoсти вoздуха измеряются на высoте 2 м в тени вдали oт зданий и деревьев.
Скoрoсть ветра измеряется на высoте 10 м (на урoвне рoста челoвека скoрoсть ветра ниже в 1.5-2 раза). Если метеoстанция нахoдится в гoрoде или в лесу, тo скoрoсть ветра занижена на 2-4 м/с пo сравнению с oткрытым местoм. Скoрoсть ветра над акватoриями крупных рек и oзёр, а также на вершинах хoлмoв на 2-5 м/с выше, чем в oбычных услoвиях.
Атмoсфернoе давление в разных тoчках местнoсти мoжет значительнo oтличаться oт давления на метеoстанции, в зависимoсти oт услoвий рельефа (при пoдъёме на 10 м давление пoнижается примернo на 1 мм рт.ст.).